AXM695 WMKK-WSSS

Flight info

Callsign AXM695
Flight time N/A
Altitude 27000
Route RUSBU1E RUSBU Y511 TOPOR A464 ARAMA DCT TEBUN TEBUN1B
Aircraft A320/M-SDE3FGHIRWY/LB1

Departure

Time 2026-05-06 14:58
Airport Kuala Lumpur International Airport (WMKK)

Arrival

Time N/A
Airport Singapore Changi Airport (WSSS)
Time Latitude Longitude Altitude Speed Heading
2026-05-06 14:30 2.74734 101.71143 75 ft 0 kts 145°
2026-05-06 14:43 2.74742 101.71138 76 ft 2 kts 144°
2026-05-06 14:43 2.74755 101.71129 76 ft 2 kts 145°
2026-05-06 14:43 2.74767 101.71121 76 ft 2 kts 145°
2026-05-06 14:44 2.74780 101.71113 76 ft 2 kts 168°
2026-05-06 14:44 2.74795 101.71112 76 ft 2 kts 191°
2026-05-06 14:44 2.74809 101.71117 76 ft 2 kts 214°
2026-05-06 14:45 2.74822 101.71131 76 ft 0 kts 236°
2026-05-06 14:45 2.74822 101.71132 76 ft 0 kts 236°
2026-05-06 14:47 2.74819 101.71127 75 ft 2 kts 236°
2026-05-06 14:48 2.74804 101.71104 75 ft 6 kts 236°
2026-05-06 14:48 2.74774 101.71060 75 ft 6 kts 236°
2026-05-06 14:48 2.74752 101.71027 76 ft 4 kts 237°
2026-05-06 14:48 2.74744 101.70994 76 ft 5 kts 279°
2026-05-06 14:49 2.74773 101.70962 76 ft 7 kts 327°
2026-05-06 14:49 2.74828 101.70925 75 ft 11 kts 326°
2026-05-06 14:49 2.74909 101.70872 76 ft 13 kts 326°
2026-05-06 14:49 2.74945 101.70802 75 ft 11 kts 255°
2026-05-06 14:50 2.74908 101.70747 76 ft 9 kts 235°
2026-05-06 14:50 2.74870 101.70691 76 ft 10 kts 236°
2026-05-06 14:50 2.74825 101.70624 76 ft 13 kts 236°
2026-05-06 14:50 2.74762 101.70531 75 ft 18 kts 236°
2026-05-06 14:51 2.74680 101.70412 76 ft 23 kts 236°
2026-05-06 14:51 2.74585 101.70270 75 ft 23 kts 236°
2026-05-06 14:51 2.74487 101.70128 76 ft 24 kts 236°
2026-05-06 14:51 2.74394 101.70091 76 ft 16 kts 145°
2026-05-06 14:52 2.74296 101.70160 75 ft 18 kts 146°
2026-05-06 14:52 2.74186 101.70232 76 ft 19 kts 146°
2026-05-06 14:52 2.74072 101.70309 76 ft 19 kts 146°
2026-05-06 14:52 2.73958 101.70386 76 ft 20 kts 146°
2026-05-06 14:53 2.73835 101.70468 76 ft 21 kts 146°
2026-05-06 14:53 2.73707 101.70554 76 ft 22 kts 146°
2026-05-06 14:53 2.73569 101.70646 75 ft 23 kts 146°
2026-05-06 14:53 2.73430 101.70740 76 ft 24 kts 146°
2026-05-06 14:54 2.73284 101.70837 76 ft 25 kts 146°
2026-05-06 14:54 2.73135 101.70937 76 ft 26 kts 146°
2026-05-06 14:54 2.72982 101.71040 76 ft 26 kts 146°
2026-05-06 14:54 2.72848 101.71130 76 ft 19 kts 146°
2026-05-06 14:55 2.72729 101.71210 76 ft 21 kts 145°
2026-05-06 14:55 2.72601 101.71296 76 ft 22 kts 146°
2026-05-06 14:55 2.72474 101.71381 75 ft 21 kts 146°
2026-05-06 14:55 2.72371 101.71450 76 ft 14 kts 147°
2026-05-06 14:56 2.72296 101.71410 76 ft 12 kts 237°
2026-05-06 14:56 2.72256 101.71345 76 ft 6 kts 238°
2026-05-06 14:56 2.72254 101.71342 75 ft 0 kts 238°
2026-05-06 14:57 2.72246 101.71330 75 ft 4 kts 238°
2026-05-06 14:57 2.72220 101.71287 75 ft 9 kts 238°
2026-05-06 14:57 2.72195 101.71245 75 ft 6 kts 255°
2026-05-06 14:57 2.72222 101.71207 76 ft 8 kts 327°
2026-05-06 14:58 2.72445 101.71058 76 ft 74 kts 326°
2026-05-06 14:58 2.73062 101.70645 76 ft 136 kts 326°
2026-05-06 14:58 2.73972 101.70035 207 ft 171 kts 326°
2026-05-06 14:58 2.74984 101.69365 733 ft 177 kts 326°
2026-05-06 14:59 2.76028 101.68662 1224 ft 191 kts 324°
2026-05-06 14:59 2.77066 101.67745 1676 ft 208 kts 312°
2026-05-06 14:59 2.77980 101.66547 2275 ft 220 kts 305°
2026-05-06 14:59 2.78873 101.65331 2978 ft 222 kts 309°
2026-05-06 15:00 2.79874 101.64074 3394 ft 240 kts 310°
2026-05-06 15:00 2.80980 101.62730 3819 ft 258 kts 310°
2026-05-06 15:00 2.82162 101.61315 4311 ft 273 kts 310°
2026-05-06 15:00 2.83254 101.59766 5034 ft 279 kts 293°
2026-05-06 15:01 2.83630 101.57873 5845 ft 280 kts 266°
2026-05-06 15:01 2.83110 101.56017 6648 ft 282 kts 239°
2026-05-06 15:01 2.81810 101.54588 7413 ft 285 kts 213°
2026-05-06 15:01 2.79979 101.53863 8185 ft 288 kts 186°
2026-05-06 15:02 2.77992 101.54042 8959 ft 290 kts 160°
2026-05-06 15:02 2.76295 101.55061 9728 ft 292 kts 134°
2026-05-06 15:02 2.74979 101.56634 10532 ft 295 kts 127°
2026-05-06 15:02 2.73708 101.58314 10985 ft 311 kts 126°
2026-05-06 15:03 2.72377 101.60083 11344 ft 329 kts 126°
2026-05-06 15:03 2.70962 101.61953 11684 ft 347 kts 127°
2026-05-06 15:03 2.69457 101.63930 11994 ft 365 kts 127°
2026-05-06 15:03 2.67889 101.65979 12292 ft 381 kts 127°
2026-05-06 15:04 2.66255 101.68108 12784 ft 390 kts 127°
2026-05-06 15:04 2.64607 101.70252 13487 ft 393 kts 127°
2026-05-06 15:04 2.62920 101.72446 14191 ft 395 kts 127°
2026-05-06 15:04 2.61245 101.74624 14839 ft 399 kts 127°
2026-05-06 15:05 2.59558 101.76817 15468 ft 402 kts 127°
2026-05-06 15:05 2.57833 101.79060 15942 ft 410 kts 127°
2026-05-06 15:05 2.56098 101.81317 16471 ft 415 kts 127°
2026-05-06 15:05 2.54332 101.83612 17075 ft 417 kts 126°
2026-05-06 15:06 2.52569 101.85903 17641 ft 420 kts 126°
2026-05-06 15:06 2.50793 101.88210 18193 ft 423 kts 126°
2026-05-06 15:06 2.48990 101.90554 18734 ft 426 kts 126°
2026-05-06 15:06 2.47181 101.92905 19249 ft 430 kts 126°
2026-05-06 15:07 2.45342 101.95295 19770 ft 432 kts 126°
2026-05-06 15:07 2.43501 101.97688 20268 ft 435 kts 126°
2026-05-06 15:07 2.41673 102.00065 20739 ft 438 kts 126°
2026-05-06 15:07 2.39817 102.02474 21213 ft 441 kts 126°
2026-05-06 15:08 2.37931 102.04922 21690 ft 443 kts 126°
2026-05-06 15:08 2.36026 102.07393 22190 ft 445 kts 126°
2026-05-06 15:08 2.34153 102.09824 22833 ft 442 kts 126°
2026-05-06 15:08 2.32288 102.12244 23468 ft 440 kts 126°
2026-05-06 15:09 2.30435 102.14650 23964 ft 441 kts 126°
2026-05-06 15:09 2.28547 102.17102 24382 ft 443 kts 126°
2026-05-06 15:09 2.26679 102.19531 24754 ft 446 kts 126°
2026-05-06 15:09 2.24767 102.22015 24854 ft 448 kts 126°
2026-05-06 15:10 2.22863 102.24487 24859 ft 448 kts 126°
2026-05-06 15:10 2.20961 102.26958 24866 ft 456 kts 126°
2026-05-06 15:10 2.19001 102.29505 24869 ft 465 kts 126°
2026-05-06 15:10 2.17016 102.32084 24869 ft 474 kts 126°
2026-05-06 15:11 2.15013 102.34687 24868 ft 479 kts 126°
2026-05-06 15:11 2.12951 102.37364 24867 ft 481 kts 126°
2026-05-06 15:11 2.10933 102.39985 24867 ft 481 kts 126°
2026-05-06 15:11 2.08876 102.42654 24867 ft 481 kts 126°
2026-05-06 15:12 2.06838 102.45298 24867 ft 481 kts 126°
2026-05-06 15:12 2.04820 102.47917 24867 ft 481 kts 126°
2026-05-06 15:12 2.02777 102.50570 24867 ft 481 kts 126°
2026-05-06 15:12 2.00725 102.53257 24867 ft 481 kts 126°
2026-05-06 15:13 1.98738 102.55893 24867 ft 481 kts 126°
2026-05-06 15:13 1.96725 102.58572 24867 ft 481 kts 126°
2026-05-06 15:13 1.94718 102.61244 24867 ft 481 kts 126°
2026-05-06 15:13 1.92699 102.63929 24867 ft 481 kts 126°
2026-05-06 15:14 1.90694 102.66596 24867 ft 481 kts 126°
2026-05-06 15:14 1.88669 102.69295 24867 ft 481 kts 126°
2026-05-06 15:14 1.86655 102.71960 24867 ft 481 kts 126°
2026-05-06 15:14 1.84652 102.74609 24867 ft 481 kts 126°
2026-05-06 15:15 1.82614 102.77308 24867 ft 482 kts 126°
2026-05-06 15:15 1.80603 102.79974 24867 ft 482 kts 126°
2026-05-06 15:15 1.78595 102.82639 24867 ft 482 kts 126°
2026-05-06 15:15 1.76583 102.85314 24866 ft 482 kts 125°
2026-05-06 15:16 1.74655 102.88045 24866 ft 481 kts 123°
2026-05-06 15:16 1.72854 102.90878 24867 ft 481 kts 120°
2026-05-06 15:16 1.71204 102.93783 24866 ft 481 kts 117°
2026-05-06 15:16 1.69640 102.96699 24867 ft 481 kts 117°
2026-05-06 15:17 1.68079 102.99641 24867 ft 481 kts 117°
2026-05-06 15:17 1.66514 103.02594 24867 ft 480 kts 117°
2026-05-06 15:17 1.64943 103.05548 24867 ft 480 kts 117°
2026-05-06 15:17 1.63289 103.08431 24856 ft 480 kts 123°
2026-05-06 15:18 1.61134 103.10959 24861 ft 482 kts 135°
2026-05-06 15:18 1.58451 103.13010 24863 ft 484 kts 147°
2026-05-06 15:18 1.55453 103.14471 24871 ft 486 kts 155°
2026-05-06 15:18 1.52299 103.15740 24869 ft 487 kts 157°
2026-05-06 15:19 1.49140 103.16968 24867 ft 487 kts 157°
2026-05-06 15:19 1.45989 103.18193 24867 ft 487 kts 157°
2026-05-06 15:19 1.42846 103.19425 24867 ft 487 kts 156°
2026-05-06 15:19 1.39712 103.20664 24867 ft 486 kts 156°
2026-05-06 15:20 1.36570 103.21912 24867 ft 486 kts 156°
2026-05-06 15:20 1.33434 103.23161 24867 ft 486 kts 156°
2026-05-06 15:20 1.30284 103.24416 24867 ft 486 kts 156°
2026-05-06 15:20 1.27168 103.25706 24867 ft 486 kts 154°
2026-05-06 15:21 1.24140 103.27127 24867 ft 485 kts 152°
2026-05-06 15:21 1.21167 103.28709 24868 ft 485 kts 149°
2026-05-06 15:21 1.18219 103.30400 24871 ft 485 kts 148°
2026-05-06 15:21 1.15323 103.32082 24874 ft 486 kts 148°
2026-05-06 15:22 1.12403 103.33781 24878 ft 486 kts 148°
2026-05-06 15:22 1.09840 103.35268 24873 ft 486 kts 148°
2026-05-06 15:22 1.06937 103.36951 24540 ft 476 kts 148°
2026-05-06 15:22 1.04111 103.38583 24258 ft 460 kts 148°
2026-05-06 15:23 1.01391 103.40155 24005 ft 446 kts 148°
2026-05-06 15:23 0.98809 103.41765 23734 ft 432 kts 140°
2026-05-06 15:23 0.96885 103.43968 23457 ft 416 kts 118°
2026-05-06 15:23 0.95991 103.46632 23195 ft 402 kts 96°
2026-05-06 15:24 0.96061 103.49412 22859 ft 394 kts 84°
2026-05-06 15:24 0.96356 103.52118 22497 ft 387 kts 83°
2026-05-06 15:24 0.96658 103.54753 22150 ft 380 kts 83°
2026-05-06 15:24 0.96949 103.57338 21790 ft 374 kts 84°
2026-05-06 15:25 0.97232 103.59914 21440 ft 367 kts 84°
2026-05-06 15:25 0.97500 103.62393 21089 ft 362 kts 84°
2026-05-06 15:25 0.97768 103.64889 20753 ft 355 kts 84°
2026-05-06 15:25 0.98019 103.67240 20456 ft 349 kts 84°
2026-05-06 15:26 0.98276 103.69650 20171 ft 342 kts 84°
2026-05-06 15:26 0.98533 103.72012 19850 ft 336 kts 83°
2026-05-06 15:26 0.98835 103.74286 19521 ft 332 kts 82°
2026-05-06 15:26 0.99158 103.76547 19194 ft 327 kts 82°
2026-05-06 15:27 0.99478 103.78792 18868 ft 322 kts 82°
2026-05-06 15:27 0.99786 103.80966 18555 ft 317 kts 82°
2026-05-06 15:27 1.00072 103.83007 18260 ft 313 kts 82°
2026-05-06 15:27 1.00369 103.85150 17947 ft 309 kts 82°
2026-05-06 15:28 1.00649 103.87270 17641 ft 304 kts 82°
2026-05-06 15:28 1.00920 103.89342 17339 ft 300 kts 82°
2026-05-06 15:28 1.01374 103.91382 17032 ft 305 kts 66°
2026-05-06 15:28 1.02456 103.93203 16568 ft 312 kts 55°
2026-05-06 15:29 1.03779 103.94952 15798 ft 323 kts 52°
2026-05-06 15:29 1.05206 103.96754 14946 ft 335 kts 52°
2026-05-06 15:29 1.06642 103.98553 14170 ft 334 kts 52°
2026-05-06 15:29 1.08064 104.00332 13735 ft 316 kts 52°
2026-05-06 15:30 1.09403 104.02010 13338 ft 306 kts 52°
2026-05-06 15:30 1.10713 104.03651 13026 ft 301 kts 52°
2026-05-06 15:30 1.12004 104.05269 12684 ft 298 kts 52°
2026-05-06 15:30 1.13306 104.06900 12289 ft 297 kts 52°
2026-05-06 15:31 1.14576 104.08494 11902 ft 296 kts 52°
2026-05-06 15:31 1.15936 104.10035 11508 ft 295 kts 42°
2026-05-06 15:31 1.17533 104.11306 11123 ft 294 kts 36°
2026-05-06 15:32 1.20924 104.13571 10332 ft 293 kts 34°
2026-05-06 15:32 1.22300 104.14481 9987 ft 293 kts 34°